Home > Weather > Port of Spain > Past weeks

Flag for Trinidad and Tobago Weather for the Past 2 Weeks in Port of Spain, Trinidad and Tobago

Now
86 °F

Scattered showers. Passing clouds.


Feels Like: 97 °F
Forecast: 81 / 87 °F
Wind: 12 mph from East

Location: Piarco International Airport - Trinidad

Current Time: Apr 29, 2016 at 12:52:22 PM

Latest Report: Apr 29, 2016 at 11:00 AM


Visibility: N/A

Pressure: 29.89 "Hg

Humidity: 75%

Dew Point: 77 °F

Location of Port of SpainLocation

Historic Weather in Port of Spain — Graph

°F

Port of Spain Temperature Yesterday

Maximum temperature yesterday: 91 °F (at 1:00 PM)
Minimum temperature yesterday: 79 °F (at 12:00 AM)
Average temperature yesterday: 83 °F

High & Low Weather Summary for the Past Weeks

 TemperatureHumidityPressure
High95 °F (Apr 14, 1:00 PM)100% (Apr 27, 4:00 AM)29.98 "Hg (Apr 27, 4:00 AM)
Low73 °F (Apr 15, 2:00 AM)47% (Apr 14, 11:00 AM)29.77 "Hg (Apr 25, 3:00 PM)
Average84 °F77%29.87 "Hg
* Reported Apr 14 11:00 AM — Apr 29 11:00 AM, Port of Spain, Weather by CustomWeather, © 2016

Note: Actual official high and low records may vary slightly from our data, if they occured in-between our weather recording intervals... More about our weather records

Advertising

Port of Spain Weather History for the Previous 24 Hours

Scroll right to see more
 ConditionsComfort  
Time TempWeatherWind HumidityBarometerVisibility
11:00 AM
Fri, Apr 29
86 °FScattered showers. Passing clouds.12 mph75%29.89 "HgN/A
10:00 AM84 °FScattered showers. Cloudy.15 mph79%29.92 "HgN/A
9:00 AM86 °FScattered showers. Partly sunny.14 mph70%29.92 "HgN/A
8:00 AM84 °FScattered clouds.12 mph79%29.92 "HgN/A
7:00 AM81 °FPartly sunny.3 mph89%29.89 "Hg6 mi
6:00 AM79 °FPartly sunny.No wind89%29.86 "HgN/A
5:00 AM79 °FPassing clouds.No wind89%29.86 "HgN/A
4:00 AM79 °FPassing clouds.No wind89%29.86 "HgN/A
3:00 AM79 °FPassing clouds.No wind89%29.86 "HgN/A
2:00 AM81 °FPassing clouds.No wind84%29.86 "HgN/A
1:00 AM81 °FPassing clouds.5 mph84%29.89 "HgN/A
12:00 AM81 °FPassing clouds.6 mph84%29.89 "HgN/A
11:00 PM
Thu, Apr 28
81 °FPassing clouds.7 mph84%29.92 "HgN/A
10:00 PM81 °FPassing clouds.5 mph89%29.92 "HgN/A
9:00 PM82 °FPassing clouds.7 mph79%29.89 "HgN/A
8:00 PM82 °FPassing clouds.7 mph84%29.89 "HgN/A
7:00 PM82 °FPassing clouds.13 mph79%29.86 "HgN/A
6:00 PM84 °FPassing clouds.14 mph74%29.86 "HgN/A
5:00 PM86 °FSprinkles. Scattered clouds.16 mph70%29.83 "HgN/A
4:00 PM88 °FPassing clouds.14 mph66%29.83 "HgN/A
3:00 PM90 °FScattered clouds.13 mph63%29.83 "HgN/A
2:00 PM91 °FScattered clouds.16 mph59%29.86 "HgN/A
1:00 PM91 °FScattered clouds.16 mph59%29.89 "HgN/A
12:00 PM86 °FPartly sunny.17 mph70%29.89 "HgN/A
Weather by CustomWeather, © 2016

See weather overviewHow to use our weather pages